DateTimeUTC,F1_A11,F1_S11,BsB_S11,BsG_S11,BsR_S11,BbsB_S11,BbsG_S11,BbsR_S11,BaB_A11,BaG_A11,BaR_A11,Tu_S11,T_S11,Uu_S11,U_S11,P_S11,T1_A11
2021-05-17T06:00:00Z,00000200,21000000,,,,,,,0000.02,-000.18,-000.10,16.3,23.5,,00.0,0674.1,30.8
2021-05-17T06:01:00Z,00000200,21000000,,,,,,,-000.15,-000.37,-000.09,16.3,23.5,,00.0,0674.1,30.8
2021-05-17T06:02:00Z,00000200,21000000,,,,,,,0000.19,0000.12,-000.06,16.3,23.5,,00.0,0674.1,30.8
2021-05-17T06:03:00Z,00000200,61000000,,,,,,,0000.33,0000.34,0000.23,16.3,23.5,,00.0,0674.1,30.8
2021-05-17T06:04:00Z,00000200,41000000,0002.91,0001.69,0001.20,0000.26,0000.22,0000.27,0000.61,0000.88,0000.72,16.5,23.3,00.4,00.3,0675.0,30.8
2021-05-17T06:05:00Z,00000200,01000000,0002.71,0001.57,0001.32,0000.95,-000.13,0000.39,0000.95,0000.92,0000.72,16.6,23.3,00.3,00.2,0675.1,30.8
2021-05-17T06:06:00Z,00000200,01000000,0002.46,0001.31,0001.20,0000.05,0000.25,0000.34,0001.01,0000.54,0000.23,16.6,23.3,00.4,00.3,0675.1,30.8
2021-05-17T06:07:00Z,00000200,01000000,0002.36,0001.53,0001.11,0000.27,0000.31,0000.18,0000.56,0000.58,0000.89,16.6,23.3,00.4,00.3,0675.0,30.8
2021-05-17T06:08:00Z,00000200,01000000,0002.38,0001.31,0000.91,0000.44,0000.28,0000.22,0000.64,0000.96,0000.53,16.7,23.3,00.3,00.2,0675.1,30.8
2021-05-17T06:09:00Z,00000200,01000000,0002.21,0001.53,0000.80,0000.51,0000.07,0000.31,0000.97,0000.45,0000.20,16.6,23.2,00.4,00.3,0675.0,30.8
2021-05-17T06:10:00Z,00000200,01000000,0002.29,0001.48,0000.73,-000.14,0000.21,0000.05,0000.54,0000.44,0000.64,16.6,23.2,00.5,00.3,0675.0,30.8
2021-05-17T06:11:00Z,00000200,01000000,0002.87,0001.57,0001.11,0000.56,0000.30,0000.32,0000.76,0000.71,0000.55,16.6,23.2,00.5,00.3,0675.0,30.8
2021-05-17T06:12:00Z,00000200,01000000,0002.12,0001.35,0001.04,0000.02,0000.40,0000.38,0000.88,0000.94,0000.50,16.6,23.2,00.4,00.3,0675.1,30.8
2021-05-17T06:13:00Z,00000200,01000000,0001.96,0001.68,0001.18,0000.32,0000.26,0000.14,0000.41,0000.61,0000.30,16.6,23.2,00.5,00.3,0675.0,30.8
2021-05-17T06:14:00Z,00000200,01000000,0002.83,0001.63,0001.01,0000.18,0000.29,0000.18,0000.93,0000.63,0000.44,16.6,23.2,00.4,00.3,0675.0,30.8
2021-05-17T06:15:00Z,00000200,01000000,0003.15,0001.43,0001.02,0000.17,0000.41,0000.25,0000.87,0000.37,0000.48,16.6,23.2,00.4,00.3,0675.0,30.8
2021-05-17T06:16:00Z,00000200,01000000,0002.60,0001.62,0001.12,0000.62,0000.17,0000.36,0000.68,0001.22,0000.66,16.6,23.2,00.3,00.2,0675.0,30.8
2021-05-17T06:17:00Z,00000200,01000000,0002.95,0001.36,0001.09,0000.51,0000.34,0000.21,0000.74,-000.07,0000.23,16.6,23.1,00.4,00.3,0675.0,30.8
2021-05-17T06:18:00Z,00000200,01000000,0002.54,0001.56,0001.14,0000.00,0000.18,0000.16,0000.72,0001.15,0000.93,16.6,23.1,00.4,00.3,0675.0,30.8
2021-05-17T06:19:00Z,00000200,01000000,0002.58,0001.56,0001.27,0000.47,0000.50,0000.34,0000.94,0001.06,0000.51,16.6,23.2,00.5,00.3,0675.1,30.8
2021-05-17T06:20:00Z,00000200,01000000,0003.27,0001.89,0001.18,0000.71,0000.07,0000.31,0001.05,0000.55,0000.47,16.6,23.2,00.6,00.4,0675.0,30.8
2021-05-17T06:21:00Z,00000200,01000000,0003.40,0001.76,0001.50,-000.16,0000.34,0000.21,0000.69,0000.91,0000.62,16.6,23.2,00.5,00.3,0675.1,30.8
2021-05-17T06:22:00Z,00000200,01000000,0003.52,0001.82,0001.60,0000.61,0000.40,0000.39,0000.74,0000.39,0000.38,16.6,23.2,00.4,00.3,0675.1,30.8
2021-05-17T06:23:00Z,00000200,01000000,0003.18,0002.17,0001.54,0000.70,0000.36,0000.22,0001.21,0001.06,0000.88,16.6,23.2,00.4,00.3,0675.1,30.8
2021-05-17T06:24:00Z,00000200,01000000,0003.36,0002.04,0001.42,0000.82,0000.16,0000.41,0000.56,0001.07,0000.35,16.6,23.2,00.3,00.2,0675.1,30.8
2021-05-17T06:25:00Z,00000200,01000000,0003.08,0001.55,0001.06,0000.45,0000.49,0000.44,0001.53,0000.81,0000.84,16.6,23.1,00.5,00.3,0675.1,30.8
2021-05-17T06:26:00Z,00000200,01000000,0002.74,0001.59,0001.17,0000.97,0000.18,0000.01,0000.86,0001.03,0000.65,16.6,23.1,00.5,00.3,0675.1,30.8
2021-05-17T06:27:00Z,00000200,01000000,0003.32,0002.11,0001.13,0000.24,0000.22,0000.29,0001.06,0000.69,0000.62,16.6,23.1,00.4,00.3,0675.1,30.8
2021-05-17T06:28:00Z,00000200,01000000,0003.38,0001.66,0001.42,0000.52,0000.35,0000.35,0000.67,0000.58,0000.54,16.6,23.1,00.4,00.3,0675.1,30.8
2021-05-17T06:29:00Z,00000200,01000000,0003.31,0002.00,0001.52,0000.91,0000.57,0000.23,0001.14,0000.89,0000.86,16.6,23.1,00.4,00.3,0675.1,30.8
2021-05-17T06:30:00Z,00000200,01000000,0003.51,0002.09,0001.08,0000.73,0000.24,0000.31,0001.17,0000.77,0000.61,16.6,23.1,00.4,00.3,0675.1,30.8
2021-05-17T06:31:00Z,00000200,01000000,0002.64,0002.07,0001.14,0000.64,0000.36,0000.29,0001.00,0001.03,0000.24,16.5,23.1,00.3,00.2,0675.1,30.8
2021-05-17T06:32:00Z,00000200,01000000,0003.26,0002.08,0001.12,0000.57,0000.44,0000.11,0000.81,0001.10,0000.74,16.5,23.1,00.4,00.3,0675.1,30.8
2021-05-17T06:33:00Z,00000200,01000000,0003.21,0001.69,0001.51,0000.39,0000.39,0000.45,0000.68,0000.60,0000.74,16.5,23.1,00.4,00.3,0675.1,30.8
2021-05-17T06:34:00Z,00000200,01000000,0003.03,0002.20,0001.12,0000.13,0000.32,0000.25,0001.42,0000.83,0000.39,16.6,23.1,00.4,00.3,0675.1,30.8
2021-05-17T06:35:00Z,00000200,01000000,0002.50,0001.92,0001.16,-000.14,0000.44,0000.10,0000.94,0001.07,0000.93,16.6,23.1,00.3,00.2,0675.1,30.8
2021-05-17T06:36:00Z,00000200,01000000,0003.31,0002.02,0001.09,-000.09,0000.33,0000.43,0000.62,0000.68,0000.46,16.6,23.1,00.3,00.2,0675.1,30.8
2021-05-17T06:37:00Z,00000200,01000000,0003.05,0002.04,0001.08,0000.73,0000.18,0000.32,0001.25,0000.82,0000.69,16.7,23.1,00.3,00.2,0675.1,30.8
2021-05-17T06:38:00Z,00000200,01000000,0002.46,0001.95,0001.23,0000.74,0000.48,0000.02,0000.81,0000.80,0000.73,16.7,23.1,00.4,00.2,0675.1,30.8
2021-05-17T06:39:00Z,00000200,01000000,0003.23,0001.76,0001.30,0000.53,0000.35,0000.10,0000.79,0000.88,0000.63,16.7,23.1,00.4,00.2,0675.1,30.8
2021-05-17T06:40:00Z,00000200,01000000,0002.66,0001.75,0001.54,0000.39,0000.34,0000.36,0000.42,0000.61,0000.40,16.7,23.1,00.3,00.2,0675.1,30.8
2021-05-17T06:41:00Z,00000200,01000000,0002.83,0001.78,0001.08,0000.63,0000.35,0000.19,0001.30,0000.79,0000.35,16.7,23.1,00.3,00.2,0675.2,30.8
2021-05-17T06:42:00Z,00000200,01000000,0002.79,0001.85,0001.13,0000.02,0000.27,0000.19,0000.70,0000.54,0000.61,16.6,23.1,00.2,00.2,0675.1,30.8
2021-05-17T06:43:00Z,00000200,01000000,0002.67,0001.35,0001.26,0000.42,0000.21,0000.18,0000.68,0000.82,0000.01,16.6,23.1,00.2,00.1,0675.2,30.8
2021-05-17T06:44:00Z,00000200,01000000,0002.40,0001.52,0001.22,0000.42,0000.48,0000.41,0000.78,0000.42,0000.98,16.6,23.1,00.2,00.1,0675.2,30.8
2021-05-17T06:45:00Z,00000200,01000000,0002.54,0001.28,0001.38,-000.16,0000.23,0000.26,0000.94,0000.62,0000.50,16.6,23.1,00.2,00.1,0675.2,30.8
2021-05-17T06:46:00Z,00000200,01000000,0002.88,0001.30,0001.00,0000.70,0000.36,0000.12,0000.82,0001.14,0000.33,16.6,23.1,00.2,00.1,0675.2,30.8
2021-05-17T06:47:00Z,00000200,01000000,0002.86,0001.46,0001.02,0000.86,0000.10,0000.00,0000.60,0000.42,0000.24,16.6,23.1,00.2,00.1,0675.2,30.8
2021-05-17T06:48:00Z,00000200,01000000,0003.14,0001.61,0001.38,0000.75,0000.28,0000.24,0000.83,0000.63,0000.51,16.6,23.1,00.1,00.1,0675.2,30.8
2021-05-17T06:49:00Z,00000200,01000000,0002.37,0001.30,0000.97,0000.26,0000.03,0000.27,0000.70,0000.89,0000.79,16.6,23.1,00.1,00.1,0675.2,30.8
2021-05-17T06:50:00Z,00000200,01000000,0002.54,0001.50,0000.99,0000.27,0000.05,0000.22,0000.50,0000.39,0000.29,16.7,23.1,00.1,00.1,0675.2,30.8
2021-05-17T06:51:00Z,00000200,01000000,0001.61,0001.69,0001.30,0000.25,0000.27,0000.32,0000.74,0000.53,0000.48,16.7,23.1,00.2,00.1,0675.2,30.8
2021-05-17T06:52:00Z,00000200,01000000,0001.99,0001.04,0000.54,0000.50,0000.28,-000.15,0000.94,0000.82,0000.76,16.7,23.1,00.2,00.1,0675.2,30.8
2021-05-17T06:53:00Z,00000200,01000000,0002.16,0001.37,0001.09,-000.09,0000.19,0000.08,0000.82,0000.64,0000.25,16.7,23.1,00.1,00.1,0675.2,30.8
2021-05-17T06:54:00Z,00000200,01000000,0002.02,0001.01,0001.09,0000.32,0000.34,0000.28,0000.46,0000.61,0000.39,16.6,23.1,00.2,00.1,0675.2,30.8
2021-05-17T06:55:00Z,00000200,01000000,0002.16,0001.13,0000.88,0000.10,0000.24,0000.18,0000.72,0000.37,0000.48,16.7,23.1,00.1,00.1,0675.2,30.8
2021-05-17T06:56:00Z,00000200,01000000,0001.84,0001.07,0000.87,-000.30,0000.29,0000.15,0000.30,0000.84,0000.46,16.6,23.1,00.2,00.1,0675.2,30.8
2021-05-17T06:57:00Z,00000200,41000000,,,,,,,0000.23,-000.18,0000.19,16.7,23.2,00.3,00.2,0675.2,30.8
2021-05-17T06:58:00Z,00000200,61000000,,,,,,,-000.08,0000.33,-000.16,16.3,23.2,00.0,00.0,0674.2,30.8
2021-05-17T06:59:00Z,00000200,21000000,,,,,,,-000.25,-000.19,0000.06,16.3,23.3,,00.0,0674.2,30.8
